Wetbulb
60.44 63.46 73.52 73.12 71.91 70.90 70.41 70.26 68.86 66.80 66.05 65.36 64.51 64.05 63.88 64.80 66.15 67.18 67.51 67.99 67.95 67.60 67.48 68.49 68.71 68.78 70.24 71.52 72.00 73.23 73.58 73.73 74.42 75.38 75.49 74.84 75.33 75.07 75.94 75.92 75.44 73.99 75.42
60.85 63.29 73.57 73.35 71.86 70.50 70.14 69.54 67.94 66.88 66.24 65.65 65.01 64.37 63.95 64.61 65.86 66.75 67.36 68.02 68.22 67.65 68.00 68.21 68.55 68.61 69.55 70.16 71.43 72.63 73.26 72.74 73.57 74.70 75.02 74.47 74.24 74.99 75.24 75.31 75.02 74.31 75.09
58.63 63.36 69.74 73.15 71.54 70.59 70.22 69.24 68.97 67.66 66.49 66.03 65.37 64.59 64.06 64.66 65.67 66.51 67.02 67.60 67.71 68.20 67.93 67.81 68.63 68.51 68.74 69.66 70.54 72.29 72.48 73.10 73.60 73.79 73.78 72.62 72.41 74.32 74.94 74.67 74.71 74.64 74.42
60.76 62.37 66.99 72.73 72.43 71.14 70.11 70.13 69.62 67.73 67.11 66.49 65.99 65.01 64.59 64.98 65.80 66.47 66.61 66.92 67.09 67.90 68.17 67.98 68.11 68.35 68.70 69.44 69.95 71.69 72.19 73.00 73.27 73.91 71.97 71.50 71.12 73.45 74.07 74.27 74.35 74.02 73.82
59.64 62.48 65.79 72.15 72.36 71.15 69.86 69.85 69.52 67.72 67.52 67.24 66.43 65.40 64.90 65.13 65.58 65.63 66.06 66.56 66.91 67.12 67.68 67.97 68.00 68.30 68.51 69.08 69.74 71.51 71.86 72.38 73.54 72.02 70.46 71.08 70.68 72.30 72.98 73.82 73.86 73.92 73.37
57.15 62.65 65.87 70.93 71.57 70.39 69.54 69.34 69.38 68.26 67.63 67.20 66.61 66.03 65.21 65.11 65.31 65.22 65.42 65.58 66.08 66.89 67.24 68.36 68.22 68.32 68.73 68.92 69.64 71.57 71.69 72.37 72.61 70.11 70.26 70.57 71.67 72.65 73.18 73.75 73.76 73.55 73.46
55.64 61.73 64.92 69.95 70.78 70.17 69.33 69.23 69.42 68.58 68.38 67.17 66.26 65.78 65.78 65.32 65.28 65.20 65.13 65.14 65.45 66.04 67.02 67.17 68.40 69.64 69.85 70.51 69.72 71.42 72.25 71.97 69.64 69.80 69.53 69.96 70.93 72.50 72.60 73.17 73.20 73.65 73.25
58.92 59.77 61.67 67.13 69.77 70.39 68.78 68.78 68.23 67.73 67.49 66.81 66.54 66.65 65.52 65.52 65.42 65.24 65.59 65.16 64.92 65.46 66.87 66.74 67.91 69.13 70.26 70.75 70.24 71.33 71.46 71.91 70.73 68.90 69.25 70.05 70.95 72.42 72.48 73.07 73.10 73.74 73.03
52.95 54.20 55.00 53.89 58.62 62.02 63.55 64.58 64.92 64.96 65.15 64.96 65.51 65.72 65.50 65.44 65.30 65.18 65.36 65.00 64.95 65.25 66.25 66.89 67.56 68.23 69.36 69.98 69.75 71.17 71.14 71.52 70.42 69.01 69.13 69.55 71.94 72.25 72.85 72.93 73.42 73.47 72.85
49.79 50.48 50.31 53.55 55.54 56.06 56.77 61.84 63.03 63.22 63.27 63.84 64.55 64.81 64.55 64.98 65.06 65.41 64.94 64.93 64.81 65.23 66.19 66.64 67.13 67.70 68.51 69.46 70.49 70.74 70.78 71.27 70.00 70.26 69.07 69.71 71.49 72.58 72.87 73.10 73.70 73.02 72.70
52.63 52.19 52.22 54.50 55.12 55.61 56.81 57.63 59.76 61.11 62.39 62.67 61.57 61.85 61.37 59.46 60.05 62.13 63.86 64.63 64.79 65.24 66.11 66.58 67.12 67.82 68.40 68.78 69.27 69.53 70.53 69.44 69.52 69.96 69.42 70.02 70.31 71.32 72.41 73.03 72.63 72.60 72.60
51.04 52.82 53.37 53.64 54.84 55.37 57.07 55.95 55.71 57.08 57.85 58.11 59.13 58.03 59.22 58.22 58.73 60.26 62.39 64.21 64.27 65.10 65.99 66.28 67.12 67.98 68.03 66.93 67.83 69.25 68.14 68.60 69.50 69.55 69.04 70.78 70.58 71.89 72.61 72.11 72.18 72.23 72.28
51.60 53.53 52.90 53.46 54.43 54.66 54.75 55.55 54.82 56.23 58.39 59.44 58.97 57.75 59.93 60.39 59.20 59.60 60.43 61.06 61.57 62.96 63.31 65.16 65.89 65.76 65.40 66.47 66.54 67.78 67.84 68.14 69.42 69.13 69.29 70.21 71.23 72.45 72.38 72.01 72.31 72.11 71.91
51.30 52.59 53.03 53.91 53.94 54.16 54.65 55.08 54.82 57.37 58.95 58.98 57.88 58.03 58.03 58.54 58.69 57.35 57.87 58.78 60.02 60.79 61.54 62.54 62.71 64.08 65.24 65.08 66.48 66.79 67.40 67.42 68.83 68.67 69.49 71.44 71.66 71.88 72.05 72.01 71.81 71.62 71.44
51.43 52.60 52.84 54.52 54.52 54.65 54.81 55.28 55.32 57.23 58.45 58.40 56.79 56.79 57.53 56.69 56.67 57.37 57.77 58.69 59.53 60.47 61.16 61.93 63.13 63.97 64.38 65.33 66.67 66.50 66.41 66.86 68.65 68.47 69.78 70.87 70.99 71.68 72.26 71.73 71.73 71.07 71.30
52.73 52.92 53.25 54.21 55.10 54.91 54.51 54.99 55.38 56.20 55.78 57.86 56.00 56.01 57.31 56.51 56.33 57.07 58.01 58.49 58.83 60.20 61.23 61.54 62.94 63.48 64.54 65.58 66.14 66.75 65.91 67.31 68.02 68.35 68.56 68.98 69.62 70.77 71.70 71.96 71.85 71.55 71.39
52.29 53.44 52.76 55.56 55.47 55.05 54.55 54.96 55.72 56.35 56.29 55.93 56.39 57.05 57.52 57.74 57.27 58.75 58.25 58.03 59.07 59.86 61.10 61.36 62.85 63.74 64.61 64.74 65.74 65.69 66.23 67.08 67.06 67.59 67.41 67.22 68.45 70.74 70.89 71.57 71.66 72.09 71.71
52.17 53.34 52.53 55.30 55.71 55.31 55.07 55.45 56.15 56.99 57.17 57.47 57.43 57.41 58.16 58.89 59.20 58.55 58.01 58.09 59.11 60.89 61.13 61.86 62.97 63.23 63.60 64.22 64.81 64.82 65.63 66.72 66.23 66.68 67.10 67.23 67.13 69.36 70.99 71.29 71.62 71.32 71.54
52.67 53.58 53.10 53.58 55.23 55.37 55.65 56.27 57.03 57.33 57.63 58.42 58.92 59.07 59.70 60.84 60.99 58.99 59.40 60.68 61.37 61.69 61.99 62.12 62.52 62.51 62.75 63.63 63.63 64.43 64.90 65.27 65.21 65.68 66.04 66.17 66.40 66.61 67.35 70.59 70.01 70.56 71.31
53.38 52.68 53.31 52.80 54.53 55.04 55.81 56.41 57.03 57.33 57.87 58.19 58.52 59.40 60.29 60.96 60.71 61.20 60.32 61.41 62.01 61.59 61.87 61.91 62.34 62.96 63.32 63.26 63.41 63.12 63.50 64.34 64.34 64.64 64.95 65.60 66.08 66.68 67.04 67.39 68.44 69.00 69.96
54.21 52.98 52.78 52.15 52.61 53.10 55.00 54.76 55.33 55.71 56.93 57.55 58.84 60.10 60.55 61.47 60.67 61.78 61.90 61.36 62.79 61.44 62.00 62.12 62.35 62.14 62.21 63.48 61.83 61.76 62.66 63.53 63.55 63.75 64.47 64.85 65.37 65.84 65.87 66.28 67.46 67.17 68.13
52.59 53.81 53.57 52.82 53.34 53.68 54.36 54.91 55.03 56.27 58.30 58.50 59.48 60.26 60.97 61.57 61.77 61.78 62.24 61.95 62.13 61.96 62.04 62.37 61.85 61.29 61.98 62.85 60.36 59.95 57.55 59.49 61.53 62.62 63.54 63.72 64.43 65.19 64.97 65.27 66.27 67.24 68.29
51.25 51.77 54.41 53.60 52.20 51.43 54.13 56.19 56.79 57.99 58.88 59.45 59.52 59.34 60.67 62.04 62.09 61.80 62.00 62.07 61.93 62.30 61.60 61.66 61.96 62.01 60.52 62.02 62.14 60.24 56.75 55.83 57.35 59.83 60.43 61.53 62.42 63.20 63.72 64.32 65.01 66.16 65.55
52.20 53.29 53.36 53.40 52.91 53.50 53.35 56.29 56.05 56.17 56.73 58.38 59.67 60.13 60.63 61.21 62.09 61.98 61.59 61.70 61.57 62.15 61.15 61.68 62.03 62.31 61.97 59.72 61.26 62.20 61.56 60.43 55.50 54.41 56.87 57.95 59.68 60.43 60.87 62.30 63.84 64.01 65.41
53.65 53.48 53.90 54.06 54.08 53.95 54.64 56.97 57.58 57.23 57.55 58.54 58.72 59.03 60.06 61.20 62.21 62.40 62.29 62.18 62.01 61.87 61.68 61.69 61.47 61.65 62.10 60.60 60.61 59.81 59.94 59.04 59.11 57.21 53.47 54.21 55.55 56.87 59.71 61.66 61.89 61.11 60.76
52.57 54.08 53.52 54.76 55.10 54.08 55.41 56.77 56.56 54.90 54.44 55.51 56.69 57.97 59.26 60.51 61.55 62.54 62.19 61.95 62.07 61.82 62.04 61.67 61.78 61.56 61.22 61.43 61.10 60.71 59.29 58.19 57.48 55.93 55.35 52.61 52.59 52.22 55.08 57.55 59.81 60.01 59.50
MSLP
1014.60 1014.29 1014.30 1014.59 1014.79 1015.20 1015.43 1015.58 1015.67 1015.62 1015.70 1015.83 1015.95 1015.99 1016.02 1015.96 1015.89 1015.84 1015.84 1015.74 1015.81 1015.78 1015.79 1015.82 1015.81 1015.84 1015.81 1015.66 1015.60 1015.60 1015.58 1015.73 1015.84 1015.84 1016.15 1016.53 1016.89 1017.19 1017.34 1017.45 1017.78 1018.00 1018.11
1013.92 1014.08 1014.15 1014.41 1014.70 1015.07 1015.19 1015.36 1015.42 1015.50 1015.63 1015.71 1015.76 1015.79 1015.81 1015.77 1015.71 1015.60 1015.60 1015.60 1015.63 1015.60 1015.61 1015.67 1015.71 1015.71 1015.71 1015.59 1015.55 1015.54 1015.70 1016.09 1016.09 1015.91 1016.09 1016.47 1017.06 1017.27 1017.38 1017.67 1018.14 1018.25 1018.41
1013.81 1014.02 1014.08 1014.34 1014.61 1014.82 1014.84 1015.07 1015.19 1015.30 1015.45 1015.54 1015.58 1015.64 1015.58 1015.53 1015.49 1015.43 1015.44 1015.48 1015.51 1015.45 1015.37 1015.49 1015.55 1015.56 1015.67 1015.73 1015.57 1015.56 1015.62 1015.83 1016.02 1016.07 1016.44 1016.99 1017.34 1017.47 1017.64 1017.91 1018.37 1018.57 1018.81
1013.68 1013.88 1014.14 1014.28 1014.40 1014.45 1014.56 1014.69 1014.90 1015.08 1015.31 1015.41 1015.42 1015.35 1015.28 1015.23 1015.30 1015.30 1015.24 1015.29 1015.33 1015.27 1015.20 1015.17 1015.38 1015.41 1015.53 1015.71 1015.64 1015.52 1015.61 1015.70 1015.93 1016.25 1016.74 1017.45 1016.48 1017.57 1017.91 1018.27 1018.53 1018.98 1019.12
1013.82 1013.82 1014.04 1013.94 1014.11 1014.33 1014.37 1014.50 1014.72 1014.88 1014.98 1015.03 1015.00 1014.97 1014.92 1014.95 1015.09 1015.15 1015.13 1015.05 1015.10 1015.07 1014.88 1014.89 1015.07 1015.21 1015.31 1015.55 1015.66 1015.55 1015.70 1015.87 1016.04 1016.42 1016.97 1017.19 1017.91 1017.98 1018.25 1018.49 1018.79 1018.95 1019.12
1013.78 1013.85 1013.96 1013.99 1014.17 1014.25 1014.25 1014.33 1014.40 1014.43 1014.44 1014.43 1014.40 1014.44 1014.56 1014.70 1014.82 1014.93 1015.00 1015.03 1014.98 1014.85 1014.82 1014.68 1014.83 1015.02 1015.12 1015.32 1015.58 1015.57 1015.71 1016.00 1016.36 1016.74 1017.18 1017.56 1017.56 1017.88 1018.11 1018.49 1018.82 1019.08 1019.40
1014.11 1014.04 1014.03 1014.05 1014.21 1014.19 1014.09 1013.99 1013.97 1013.98 1013.89 1013.96 1013.87 1013.80 1013.96 1014.13 1014.36 1014.58 1014.73 1014.76 1014.75 1014.74 1014.62 1014.48 1014.62 1014.82 1015.03 1015.20 1015.43 1015.55 1015.65 1016.11 1016.52 1016.87 1017.15 1017.64 1017.94 1017.97 1018.41 1018.58 1018.79 1019.30 1019.55
1014.23 1014.24 1014.15 1014.24 1014.13 1013.97 1013.83 1013.75 1013.74 1013.60 1013.49 1013.39 1013.34 1013.28 1013.50 1013.73 1013.87 1014.07 1014.24 1014.36 1014.47 1014.51 1014.42 1014.25 1014.40 1014.59 1014.79 1015.14 1015.33 1015.48 1015.75 1016.11 1016.72 1017.03 1017.40 1017.62 1018.07 1018.25 1018.54 1018.85 1018.99 1019.25 1019.70
1014.30 1014.35 1014.49 1014.54 1014.40 1014.19 1014.07 1013.93 1013.83 1013.73 1013.56 1013.29 1013.05 1012.88 1012.99 1013.32 1013.50 1013.73 1013.92 1014.00 1014.12 1014.18 1014.17 1014.11 1014.21 1014.58 1014.76 1015.09 1015.29 1015.40 1015.71 1016.08 1016.64 1016.99 1017.50 1017.84 1018.12 1018.27 1018.43 1018.86 1019.14 1019.60 1019.96
1014.70 1014.68 1014.75 1014.76 1014.71 1014.58 1014.46 1014.25 1013.92 1013.82 1013.58 1013.31 1013.11 1012.76 1012.71 1012.84 1013.09 1013.17 1013.31 1013.57 1013.71 1013.82 1013.85 1013.88 1014.08 1014.40 1014.64 1015.05 1015.24 1015.37 1015.66 1016.07 1016.65 1017.04 1017.60 1017.88 1018.08 1018.38 1018.57 1018.97 1019.28 1019.78 1020.08
1014.89 1014.77 1014.75 1014.89 1014.81 1014.63 1014.43 1014.29 1014.13 1013.90 1013.58 1013.36 1013.28 1013.11 1012.99 1013.16 1013.11 1013.02 1013.17 1013.22 1013.40 1013.50 1013.55 1013.63 1013.86 1014.14 1014.53 1014.93 1015.12 1015.30 1015.53 1016.24 1016.66 1017.15 1017.49 1017.90 1018.28 1018.53 1018.77 1019.04 1019.39 1020.02 1020.36
1015.01 1014.75 1014.83 1014.80 1014.78 1014.66 1014.41 1014.38 1014.21 1014.01 1013.83 1013.57 1013.37 1013.33 1013.12 1013.09 1013.13 1013.08 1012.97 1013.05 1013.13 1013.20 1013.25 1013.45 1013.56 1013.96 1014.35 1014.90 1015.13 1015.22 1015.88 1016.18 1016.56 1017.02 1017.34 1017.69 1018.41 1018.65 1018.84 1019.42 1019.71 1020.15 1020.55
1015.05 1014.89 1014.72 1014.76 1014.72 1014.54 1014.46 1014.23 1014.14 1014.02 1013.65 1013.39 1013.31 1013.27 1013.02 1012.79 1012.85 1012.96 1012.96 1013.07 1013.24 1013.39 1013.57 1013.33 1013.44 1013.93 1014.44 1014.80 1015.18 1015.48 1015.88 1016.19 1016.54 1016.95 1017.12 1018.03 1018.37 1018.55 1018.87 1019.48 1019.81 1020.25 1020.77
1015.14 1014.85 1014.63 1014.65 1014.62 1014.47 1014.31 1014.14 1014.12 1013.86 1013.50 1013.32 1013.23 1013.15 1012.98 1012.76 1012.72 1012.88 1013.00 1013.15 1013.24 1013.43 1013.48 1013.55 1013.61 1013.94 1014.41 1014.80 1015.24 1015.55 1015.89 1016.21 1016.56 1016.99 1017.06 1017.93 1018.12 1018.56 1018.99 1019.45 1019.89 1020.50 1021.06
1015.16 1014.86 1014.61 1014.62 1014.54 1014.37 1014.26 1014.10 1014.02 1013.79 1013.47 1013.21 1013.19 1013.02 1012.88 1012.86 1012.76 1012.73 1012.79 1012.90 1013.07 1013.25 1013.36 1013.46 1013.64 1014.06 1014.43 1014.92 1015.33 1015.57 1015.98 1016.28 1016.56 1016.89 1017.13 1017.83 1018.35 1018.67 1018.99 1019.45 1020.09 1020.68 1021.20
1015.24 1014.90 1014.68 1014.55 1014.48 1014.24 1014.27 1014.22 1014.00 1013.66 1013.37 1012.99 1013.00 1012.85 1012.65 1012.69 1012.58 1012.60 1012.62 1012.69 1012.78 1012.97 1013.13 1013.43 1013.63 1014.10 1014.51 1014.86 1015.37 1015.64 1015.99 1016.30 1016.56 1016.90 1017.50 1018.27 1018.75 1018.89 1019.17 1019.73 1020.26 1020.74 1021.29
1015.22 1014.90 1014.67 1014.44 1014.25 1014.30 1014.27 1014.02 1013.71 1013.33 1013.07 1012.86 1012.74 1012.54 1012.45 1012.34 1012.27 1012.20 1012.33 1012.43 1012.50 1012.74 1013.02 1013.37 1013.62 1013.97 1014.56 1015.07 1015.31 1015.65 1016.00 1016.41 1016.98 1017.17 1017.77 1018.76 1019.14 1019.25 1019.30 1019.81 1020.41 1020.62 1021.16
1015.19 1014.89 1014.65 1014.42 1014.26 1014.33 1014.16 1013.81 1013.42 1013.11 1012.80 1012.58 1012.40 1012.25 1012.09 1011.94 1011.85 1011.98 1012.14 1012.24 1012.32 1012.56 1012.86 1013.29 1013.65 1014.09 1014.70 1015.14 1015.44 1015.70 1016.36 1016.78 1017.37 1017.66 1018.52 1018.89 1019.17 1019.26 1019.54 1019.84 1020.31 1020.89 1021.35
1015.08 1014.79 1014.58 1014.47 1014.33 1014.25 1014.04 1013.53 1013.11 1012.81 1012.61 1012.27 1012.22 1012.09 1011.77 1011.50 1011.37 1011.66 1011.70 1011.99 1012.19 1012.50 1012.85 1013.25 1013.80 1014.12 1014.81 1015.21 1015.64 1015.94 1016.86 1017.39 1017.79 1018.15 1018.90 1019.17 1019.49 1019.77 1019.88 1020.16 1020.60 1020.99 1021.46
1015.00 1014.69 1014.53 1014.49 1014.26 1014.10 1013.86 1013.44 1013.09 1012.88 1012.56 1012.48 1012.34 1011.99 1011.74 1011.53 1011.53 1011.47 1011.84 1012.04 1012.25 1012.62 1012.98 1013.39 1013.68 1014.32 1014.76 1015.35 1015.97 1016.56 1017.31 1017.76 1018.23 1018.61 1019.28 1019.72 1020.08 1020.49 1020.53 1020.42 1020.69 1021.19 1021.49
1014.97 1014.76 1014.54 1014.47 1014.16 1014.18 1013.97 1013.67 1013.39 1013.09 1012.82 1012.85 1012.42 1012.14 1011.88 1011.86 1011.97 1011.87 1012.14 1012.33 1012.61 1012.91 1012.94 1013.48 1013.83 1014.53 1015.20 1015.51 1016.12 1016.96 1017.85 1018.43 1018.94 1019.31 1019.70 1020.05 1020.54 1020.86 1021.05 1021.22 1021.48 1021.58 1021.95
1014.88 1014.75 1014.52 1014.34 1014.24 1014.28 1014.10 1013.79 1013.66 1013.33 1013.22 1013.13 1012.63 1012.39 1012.19 1011.66 1011.98 1012.10 1012.19 1012.47 1012.71 1013.11 1013.35 1013.71 1014.16 1014.75 1015.22 1015.68 1016.20 1016.77 1018.05 1019.22 1019.69 1019.98 1020.24 1020.47 1020.90 1021.15 1021.70 1021.68 1021.93 1022.26 1022.70
1014.84 1014.70 1014.52 1014.36 1014.34 1014.38 1014.08 1013.80 1013.48 1013.09 1013.34 1013.21 1012.79 1012.92 1012.64 1012.30 1011.96 1011.99 1012.16 1012.54 1012.84 1013.28 1013.61 1014.01 1014.40 1014.58 1015.05 1016.06 1016.24 1016.81 1017.34 1018.53 1019.89 1020.74 1020.88 1020.99 1021.40 1021.87 1022.12 1022.12 1022.36 1022.76 1022.89
1014.75 1014.64 1014.48 1014.40 1014.41 1014.39 1014.15 1013.89 1013.86 1013.76 1013.84 1013.62 1013.49 1013.30 1013.21 1012.72 1012.56 1012.60 1012.64 1012.92 1013.35 1013.51 1013.98 1014.13 1014.72 1014.85 1015.12 1016.12 1016.45 1016.49 1016.93 1018.00 1019.16 1020.62 1021.59 1021.99 1022.26 1022.54 1022.77 1022.78 1023.13 1023.58 1023.56
1014.64 1014.66 1014.55 1014.43 1014.56 1014.53 1014.32 1014.14 1014.00 1014.03 1014.21 1013.73 1013.40 1013.50 1013.33 1013.18 1013.03 1013.12 1013.28 1013.43 1013.94 1014.23 1014.37 1014.69 1013.24 1015.48 1015.43 1016.05 1016.62 1017.37 1018.14 1018.96 1019.39 1020.02 1021.69 1022.90 1023.24 1023.57 1023.62 1023.52 1023.78 1024.03 1024.40
1014.61 1014.67 1014.75 1014.63 1014.63 1014.72 1014.65 1014.29 1014.14 1014.11 1014.44 1014.33 1013.93 1013.43 1013.08 1012.98 1013.36 1013.35 1013.46 1013.79 1014.39 1014.75 1014.90 1015.10 1015.33 1015.67 1016.18 1016.47 1017.15 1017.52 1017.99 1018.75 1019.71 1020.29 1021.69 1023.03 1023.76 1024.49 1024.43 1024.53 1024.37 1024.62 1024.25
Wind_Speed
6 6 16 16 16 15 13 12 11 11 11 9 7 8 9 9 11 11 11 11 10 8 8 7 6 5 5 6 3 7 7 5 7 8 12 11 12 14 16 17 17 15 17
4 8 16 16 15 14 13 13 13 13 11 10 10 10 10 10 11 11 11 10 9 10 9 8 7 5 4 5 2 5 11 12 8 9 13 13 13 15 16 17 16 15 16
2 7 9 14 14 14 15 15 14 13 13 12 12 12 11 10 11 11 10 10 10 11 10 9 7 5 3 4 2 6 7 11 11 13 13 6 7 14 15 16 17 17 16
6 6 6 13 16 16 16 16 15 14 14 14 14 14 12 11 11 12 11 11 10 11 12 11 10 7 5 5 4 6 7 11 12 15 10 9 5 12 13 15 17 18 17
6 7 8 18 16 15 16 15 14 15 16 16 16 15 14 12 11 11 11 11 11 11 13 13 11 10 7 6 5 4 8 12 17 14 12 9 8 10 15 14 17 18 17
6 3 6 14 14 16 15 15 15 17 17 18 18 16 15 14 14 12 11 9 10 12 14 13 13 12 9 7 5 4 10 13 13 9 8 3 7 16 18 16 18 19 17
4 4 5 10 12 14 15 16 16 18 19 18 19 18 17 17 15 14 14 12 12 13 13 16 12 12 10 7 5 5 12 14 7 8 6 4 3 14 15 13 18 18 18
5 3 2 6 12 13 15 15 16 17 18 18 19 19 18 18 18 16 15 14 12 13 15 16 15 13 10 7 5 5 12 16 9 5 6 4 13 16 18 16 17 17 17
5 3 1 3 5 7 8 10 10 12 13 13 17 21 18 18 19 17 15 13 13 14 15 17 14 13 10 8 6 4 12 15 9 6 6 3 15 17 19 17 17 17 18
3 2 3 1 3 3 5 9 11 12 14 12 14 13 14 18 20 20 16 15 13 15 14 16 14 15 11 9 5 5 14 17 7 8 6 3 15 19 18 17 19 18 18
1 2 1 1 2 4 3 4 7 10 12 11 10 10 7 2 4 10 12 14 14 14 14 16 15 15 13 10 6 8 16 5 7 5 5 11 12 14 18 18 19 19 20
5 3 2 2 3 4 3 3 4 5 4 4 4 5 4 3 3 5 9 16 14 15 14 14 16 16 13 3 2 9 4 6 5 7 6 21 20 18 18 19 20 20 19
4 2 4 2 3 3 3 3 2 2 3 3 4 5 4 3 2 2 1 1 1 4 3 6 8 4 5 4 3 5 7 6 4 5 15 18 19 20 20 21 21 20 19
4 4 5 3 4 4 3 3 3 3 3 3 3 4 3 2 3 3 2 3 2 2 3 3 3 4 5 5 6 8 7 5 4 6 14 22 21 21 22 22 22 21 19
4 5 4 4 4 4 4 3 3 4 4 3 3 4 2 2 3 3 3 3 3 2 2 2 4 5 5 5 6 7 7 6 6 6 6 20 17 19 21 22 23 23 21
4 5 4 4 3 4 4 5 4 3 4 4 3 4 4 3 3 3 3 4 3 3 2 3 5 5 5 5 7 7 7 7 7 8 7 12 17 18 20 22 24 23 21
2 4 4 4 3 4 5 5 4 3 3 2 3 4 4 4 4 3 3 3 3 3 3 3 3 5 5 5 9 7 8 8 7 9 9 5 10 19 21 22 22 21 22
1 4 4 4 4 5 5 4 3 3 2 3 3 3 4 4 4 3 3 3 3 4 4 4 5 6 4 7 7 7 7 9 8 9 8 5 6 9 15 20 19 20 21
1 4 3 4 4 5 6 5 4 4 3 3 3 3 4 3 2 4 3 4 7 5 5 6 5 7 6 6 6 7 7 8 9 8 8 6 4 3 4 15 19 19 20
1 4 3 4 4 5 4 4 3 2 3 3 3 2 1 2 3 5 4 5 4 6 7 5 8 6 7 8 8 8 7 8 7 8 8 5 5 3 3 6 9 11 20
1 3 4 5 5 3 3 3 3 3 3 3 3 3 1 2 3 4 4 4 4 5 8 8 9 11 7 11 8 9 8 9 9 8 5 5 5 3 4 5 4 3 9
2 4 3 4 4 4 2 2 1 2 2 1 2 5 5 4 6 3 6 5 5 6 8 8 9 8 9 7 8 9 7 7 7 6 6 6 7 6 5 6 8 7 8
2 3 3 4 5 4 5 2 3 2 2 2 3 2 3 6 7 7 7 6 7 6 5 8 6 12 9 7 6 4 6 4 6 3 7 7 8 6 5 7 8 8 7
3 2 3 3 4 3 5 3 4 2 2 2 1 2 3 5 8 8 8 6 7 7 7 7 4 6 12 9 3 5 6 5 5 5 5 6 7 6 6 6 7 7 7
4 1 1 3 4 3 2 3 3 4 3 2 1 3 4 4 7 6 6 7 7 6 7 8 7 7 6 4 5 7 9 6 4 5 6 4 6 5 4 5 5 6 4
4 1 2 3 3 3 1 2 4 3 3 3 4 5 5 4 4 5 5 5 6 7 8 7 7 10 7 7 6 7 7 5 8 5 7 4 4 3 3 2 4 3 4
Wind_Direction
235 191 188 194 198 205 212 215 217 219 223 229 242 263 273 276 282 281 274 270 255 261 255 267 272 286 318 334 261 212 183 219 188 174 151 154 151 150 137 131 129 130 127
154 186 195 200 201 211 216 219 221 224 226 233 244 257 257 263 269 270 268 267 258 252 253 254 256 271 309 326 312 199 182 193 169 143 158 156 157 148 133 128 130 129 127
229 187 203 200 203 216 217 223 228 229 234 242 251 254 251 251 255 264 266 270 265 258 251 249 255 253 265 305 319 204 200 193 150 128 108 79 142 146 133 133 137 127 126
217 189 189 203 209 216 221 226 228 231 238 245 253 255 251 247 247 251 255 259 262 262 249 247 251 244 237 260 284 211 195 179 151 129 114 114 141 131 130 138 135 134 128
208 186 201 212 216 223 228 235 236 242 246 249 253 256 253 244 241 245 254 259 261 263 260 241 241 246 234 240 273 211 194 180 160 136 136 144 170 152 140 146 145 137 130
235 202 224 223 226 231 236 241 245 248 252 255 256 256 253 245 239 238 243 248 269 269 260 256 230 240 242 230 262 235 190 174 154 143 153 141 157 153 153 153 142 134 136
213 219 221 228 235 240 245 253 253 256 258 260 263 257 248 237 234 236 243 249 258 270 257 259 250 228 230 224 230 247 184 163 145 141 159 154 160 148 147 153 135 133 134
146 145 198 244 250 243 251 263 276 280 280 267 261 260 242 236 232 233 237 239 251 259 264 243 253 230 217 216 209 230 186 177 143 144 159 195 173 168 158 149 134 134 132
74 66 16 309 328 346 331 310 307 311 308 302 282 256 247 236 234 238 236 240 246 252 257 244 249 236 222 213 203 222 183 175 136 154 184 212 170 164 158 148 132 135 136
26 347 254 258 357 340 325 315 308 312 307 301 303 285 266 253 244 234 235 239 247 247 252 242 242 233 217 209 190 194 178 171 147 149 171 211 180 173 163 148 139 143 134
291 302 267 294 342 348 297 309 325 313 305 307 306 304 300 315 291 261 253 247 234 247 249 241 238 226 212 200 205 195 176 134 142 140 151 191 176 180 163 148 142 142 135
311 310 281 300 335 320 305 318 306 304 299 280 301 299 279 259 247 244 234 242 236 246 240 242 226 212 204 169 200 188 137 154 144 148 134 151 184 183 155 148 143 135 131
281 282 323 299 301 297 299 301 299 269 258 262 251 262 271 271 231 259 223 294 70 278 296 242 214 188 157 162 151 132 151 141 158 140 151 175 177 165 155 149 138 131 135
292 305 332 319 315 303 295 311 299 293 285 273 262 259 258 262 231 208 188 206 201 230 261 221 180 150 153 154 144 151 146 137 133 140 164 177 166 161 158 149 139 139 139
307 323 320 316 320 318 319 313 297 295 290 293 279 258 243 246 203 184 193 182 192 185 208 175 148 162 150 151 147 156 144 140 138 152 146 157 156 159 156 150 146 146 147
318 316 322 284 299 338 314 298 292 282 266 267 257 249 234 231 205 189 189 189 185 191 172 170 154 151 146 152 161 155 140 149 145 146 141 140 161 163 158 154 152 150 145
343 307 313 299 306 341 312 291 281 277 284 293 273 270 257 234 232 206 184 185 181 169 157 157 135 123 130 159 168 150 141 150 142 129 117 137 178 172 156 154 154 149 145
50 302 316 342 338 334 302 287 289 305 306 282 271 274 274 267 234 201 179 194 160 156 151 137 127 124 144 171 157 148 119 120 116 106 116 133 179 162 155 152 150 149 145
79 301 333 348 320 306 301 293 309 315 308 306 326 319 309 278 194 176 161 155 156 141 134 128 135 133 154 132 126 128 117 121 113 109 100 82 98 84 141 148 150 150 148
19 308 317 321 319 321 296 293 320 312 337 25 0 339 40 10 116 131 98 101 110 132 138 133 135 127 140 128 121 116 112 107 102 102 91 72 73 136 125 129 146 158 145
231 312 329 320 337 343 327 331 342 334 344 22 339 20 317 100 80 96 107 111 114 137 136 137 124 140 135 129 116 105 98 104 101 105 85 99 106 150 74 107 86 87 130
310 275 314 313 355 344 308 301 296 313 25 344 335 9 5 49 105 97 114 118 114 131 117 129 134 141 129 139 128 122 117 109 80 80 93 101 97 100 89 95 88 110 123
306 294 295 301 332 330 335 326 340 329 72 39 349 32 8 61 72 63 83 87 79 111 101 118 141 140 129 122 118 158 118 121 116 53 76 74 76 88 94 94 94 91 99
242 276 19 349 338 337 338 45 50 21 34 347 355 356 47 60 68 67 58 68 79 93 95 120 84 120 136 130 97 53 91 116 117 132 52 56 59 64 66 65 74 76 74
233 236 20 1 20 8 337 78 73 31 34 345 54 102 58 53 67 72 74 68 74 81 99 102 94 97 119 100 110 118 102 83 83 123 108 93 60 32 59 82 77 88 94
227 198 69 25 359 44 290 56 72 49 48 76 21 22 20 42 67 52 67 78 88 99 108 96 83 87 88 93 108 116 129 138 141 123 119 83 106 62 53 65 86 108 86